[[{"header":{"parameterUnit":"m.s-1","parameterCategory":2,"la1":30.2991,"la2":30.254,"lo1":-89.0895,"lo2":-89.0444,"dy":0.0017,"dx":0.0017,"nx":28,"ny":28,"refTime":"2023-08-04T09:00:00:Z","depth":"0","parameterNumber":2,"parameterNumberName":"U-component_of_CURRENTS"},"data":[0,0,0,0,0,0,0,0,0,0,0,0,0,0,0,0,0,0,0,0,0,0,0,0,0,0,0,0,0,0,0,0,0,0,0,0,0,0,0,0,0,0,0,0,0,0,0,0,0,0,0,0,0,0,0,0,0,0,0.2233,0.2234,0,0.2323,0.2324,0.2326,0.2304,0.2301,0.2299,0.2297,0.2088,0.2085,0.2082,0,0,0,0,0,0,0,0,0,0,0,0,0,0.2148,0.215,0.2233,0.2234,0.2234,0.2322,0.2324,0.2326,0.2304,0.2301,0.2298,0.2296,0.2089,0.2085,0.2081,0,0,0,0,0,0,0,0,0,0,0,0,0,0.2212,0.215,0.2233,0.2229,0.223,0.2322,0.2324,0.2327,0.2305,0.2301,0.2298,0.2295,0.2091,0.2086,0.2081,0.2118,0,0,0.2065,0.2063,0,0,0,0,0,0,0,0,0.2208,0.2216,0.2229,0.223,0.223,0.2293,0.2218,0.224,0.2305,0.2283,0.2297,0.2293,0.2128,0.212,0.2157,0.2108,0.21,0.2065,0.2062,0.2059,0.2058,0,0,0,0,0,0,0,0.2204,0.2212,0.2275,0.223,0.2231,0.2259,0.2264,0.2224,0.2222,0.2284,0.2281,0.2283,0.2126,0.2162,0.2151,0.2096,0.2065,0.206,0.2057,0.2055,0.2022,0.2024,0,0,0,0,0,0,0.2179,0.2208,0.2272,0.2277,0.2204,0.2262,0.2268,0.2281,0.2229,0.2219,0.2286,0.2281,0.2173,0.2157,0.2143,0.2144,0.2059,0.2055,0.2052,0.202,0.2022,0.2025,0,0,0,0,0,0,0.2177,0.2185,0.2268,0.2239,0.225,0.2266,0.2282,0.2285,0.2313,0.2233,0.2217,0.2307,0.2169,0.215,0.213,0.2136,0.2052,0.2048,0.2017,0.202,0.2023,0.217,0,0,0,0,0,0,0.2175,0.2184,0.2211,0.2237,0.2251,0.2317,0.2285,0.2289,0.2316,0.2311,0.2246,0.2225,0.2165,0.2139,0.2125,0.2127,0.2044,0.2014,0.2019,0.2022,0.2162,0.2178,0.2191,0,0,0,0,0,0.2172,0.2191,0.2212,0.222,0.2279,0.2317,0.2329,0.2332,0.232,0.2344,0.2316,0.2226,0.2153,0.2138,0.2121,0.2121,0.2012,0.2017,0.2022,0.2156,0.2175,0.219,0,0,0,0,0,0,0.2171,0.2192,0.2214,0.2243,0.2282,0.231,0.2323,0.2346,0.2356,0.2332,0.2269,0.2248,0.2236,0.217,0.2155,0.2127,0.2062,0.2063,0.2169,0.2186,0.22,0.22,0.2039,0,0,0,0,0,0.2189,0.2212,0.2241,0.2277,0.2278,0.2315,0.2338,0.2345,0.2347,0.2351,0.2324,0.2278,0.2253,0.2211,0.2184,0.2168,0.2153,0.2154,0.2168,0.2181,0.2172,0.2209,0.2226,0.2041,0.2041,0.2041,0,0,0.2202,0.2219,0.2235,0.2281,0.2298,0.2332,0.232,0.2341,0.238,0.2319,0.2355,0.2336,0.2269,0.2267,0.2249,0.2199,0.2233,0.2187,0.2198,0.2182,0.2216,0.2234,0.225,0.2044,0.2043,0.2043,0,0,0.2208,0.2244,0.2248,0.2289,0.2316,0.2346,0.2354,0.2393,0.2406,0.2455,0.2422,0.2423,0.2384,0.2353,0.2323,0.2398,0.2328,0.2372,0.2415,0.2453,0.2468,0.2482,0.252,0.2535,0.2354,0.2354,0.2355,0,0.2214,0.2246,0.2263,0.2285,0.2317,0.235,0.2374,0.2415,0.2462,0.2471,0.2464,0.2482,0.2427,0.2422,0.2449,0.2426,0.244,0.2356,0.2473,0.2485,0.2497,0.2532,0.2547,0.2362,0.2361,0.236,0.236,0,0.2227,0.2268,0.2267,0.2316,0.236,0.2386,0.243,0.2473,0.2503,0.2546,0.2579,0.257,0.2566,0.2557,0.2519,0.2561,0.2547,0.2511,0.2432,0.2524,0.2555,0.2569,0.2373,0.237,0.2368,0.2366,0,0,0.215,0.2255,0.225,0.2286,0.2375,0.2395,0.246,0.2513,0.2536,0.2613,0.2651,0.2666,0.268,0.265,0.2623,0.2643,0.275,0.2609,0.2608,0.2651,0.2848,0.2832,0.2844,0.2744,0.2746,0.2748,0.285,0,0.2138,0.2194,0.2255,0.232,0.2341,0.2417,0.2477,0.254,0.2589,0.2644,0.2666,0.2695,0.2708,0.2702,0.2748,0.2739,0.2785,0.2725,0.2745,0.2745,0.2724,0.2859,0.2745,0.2826,0.2862,0.2865,0.2866,0,0.2092,0.2145,0.2202,0.2307,0.2316,0.2369,0.2441,0.2507,0.2594,0.2633,0.2704,0.2732,0.2794,0.278,0.288,0.2847,0.2866,0.2869,0.2873,0.2806,0.2753,0.2732,0.2848,0.2756,0.2885,0.2884,0.2882,0,0.1992,0.2086,0.2133,0.2179,0.2309,0.2327,0.2391,0.2483,0.252,0.2621,0.2657,0.2767,0.2803,0.2877,0.2935,0.2908,0.3035,0.2988,0.3004,0.3003,0.288,0.2863,0.2904,0.3066,0.3066,0.3066,0.3065,0,0.1949,0.1981,0.2081,0.2114,0.2144,0.2253,0.2287,0.2368,0.2463,0.2509,0.264,0.2691,0.283,0.2922,0.2968,0.3056,0.3082,0.3044,0.304,0.2931,0.2919,0.2806,0.2742,0.3069,0.3069,0.3068,0.3067,0,0.1864,0.1938,0.1976,0.2078,0.21,0.2116,0.2218,0.2245,0.2362,0.2425,0.2459,0.2646,0.2789,0.2926,0.304,0.3084,0.3072,0.3166,0.3039,0.3019,0.2927,0.2875,0.2822,0.2761,0.3202,0.3203,0.3203,0,0.1851,0.186,0.1918,0.1914,0.1959,0.2,0.2031,0.2167,0.2209,0.2384,0.2404,0.2582,0.2704,0.2925,0.3045,0.3179,0.307,0.312,0.3041,0.294,0.2878,0.2775,0.2719,0.2949,0.2947,0.2946,0.2945,0,0.1806,0.1801,0.1819,0.1821,0.1826,0.1864,0.1921,0.1942,0.2104,0.2183,0.2314,0.2424,0.2678,0.2808,0.3012,0.3063,0.2966,0.3093,0.3014,0.272,0.258,0.2511,0.2868,0.2932,0.2933,0.2934,0.2935,0.2935,0.1725,0.1712,0.1708,0.1704,0.1713,0.1732,0.1739,0.1819,0.1895,0.2018,0.2172,0.2307,0.2524,0.2815,0.2873,0.289,0.2888,0.2815,0.2776,0.2695,0.2582,0.2925,0.2961,0.2963,0.2964,0.2965,0.2966,0,0.1611,0.1619,0.1609,0.159,0.1572,0.1627,0.1669,0.1679,0.174,0.1873,0.1998,0.2173,0.2325,0.2488,0.2623,0.258,0.2498,0.2517,0.2327,0.2302,0.2633,0.2566,0.2484,0.2484,0.2484,0.2485,0.2485,0.2485,0.1547,0.151,0.1523,0.1461,0.1457,0.1436,0.1447,0.1489,0.1568,0.1666,0.1755,0.1884,0.2119,0.2275,0.2295,0.2269,0.2118,0.2055,0.207,0.2269,0.2293,0.2315,0.2239,0.209,0.209,0.1662,0.1658,0.1655]},{"header":{"parameterUnit":"m.s-1","parameterCategory":2,"la1":30.2991,"la2":30.254,"lo1":-89.0895,"lo2":-89.0444,"dy":0.0017,"dx":0.0017,"nx":28,"ny":28,"refTime":"2023-08-04T09:00:00:Z","depth":"0","parameterNumber":3,"parameterNumberName":"V-component_of_CURRENTS"},"data":[0,0,0,0,0,0,0,0,0,0,0,0,0,0,0,0,0,0,0,0,0,0,0,0,0,0,0,0,0,0,0,0,0,0,0,0,0,0,0,0,0,0,0,0,0,0,0,0,0,0,0,0,0,0,0,0,0,0,-0.0595,-0.0595,0,-0.0667,-0.0668,-0.0669,-0.0719,-0.0719,-0.0719,-0.0718,-0.0606,-0.0603,-0.06,0,0,0,0,0,0,0,0,0,0,0,0,0,-0.062,-0.0619,-0.0595,-0.0595,-0.0596,-0.0667,-0.0668,-0.067,-0.0719,-0.0719,-0.0719,-0.0718,-0.0607,-0.0603,-0.06,0,0,0,0,0,0,0,0,0,0,0,0,0,-0.0646,-0.0619,-0.0595,-0.0626,-0.0629,-0.0666,-0.0668,-0.067,-0.0719,-0.0719,-0.0718,-0.0718,-0.0608,-0.0604,-0.0599,-0.0573,0,0,-0.0586,-0.0584,0,0,0,0,0,0,0,0,-0.0645,-0.0646,-0.0621,-0.0624,-0.0627,-0.068,-0.0636,-0.0627,-0.0719,-0.0689,-0.0718,-0.0718,-0.061,-0.0606,-0.0629,-0.0568,-0.0563,-0.0585,-0.0583,-0.0581,-0.0579,0,0,0,0,0,0,0,-0.0643,-0.0644,-0.0628,-0.0621,-0.0625,-0.0677,-0.068,-0.0636,-0.0649,-0.0692,-0.0694,-0.0695,-0.0612,-0.0633,-0.0626,-0.0561,-0.0585,-0.0581,-0.0579,-0.0577,-0.047,-0.047,0,0,0,0,0,0,-0.0618,-0.0641,-0.0626,-0.063,-0.0631,-0.0676,-0.0679,-0.0667,-0.0654,-0.0652,-0.0695,-0.0697,-0.0641,-0.0631,-0.0621,-0.0574,-0.0581,-0.0577,-0.0574,-0.047,-0.047,-0.047,0,0,0,0,0,0,-0.0618,-0.0616,-0.0623,-0.0635,-0.0639,-0.0674,-0.066,-0.0668,-0.0683,-0.0658,-0.0654,-0.07,-0.064,-0.0628,-0.0593,-0.0569,-0.0575,-0.0571,-0.0471,-0.047,-0.047,-0.0486,0,0,0,0,0,0,-0.0619,-0.0615,-0.0621,-0.0632,-0.0637,-0.0639,-0.066,-0.0669,-0.0682,-0.0685,-0.066,-0.0651,-0.0639,-0.06,-0.0589,-0.0563,-0.0567,-0.0471,-0.047,-0.047,-0.0486,-0.0486,-0.0487,0,0,0,0,0,-0.0619,-0.0608,-0.0621,-0.062,-0.0635,-0.0638,-0.0646,-0.0675,-0.0681,-0.0689,-0.0681,-0.0652,-0.059,-0.0597,-0.0583,-0.0556,-0.0471,-0.047,-0.047,-0.0485,-0.0486,-0.0487,0,0,0,0,0,0,-0.0612,-0.0612,-0.0626,-0.0614,-0.0627,-0.0645,-0.0653,-0.0668,-0.0674,-0.0669,-0.065,-0.064,-0.0606,-0.0578,-0.0587,-0.0527,-0.0524,-0.0521,-0.054,-0.054,-0.0541,-0.0523,-0.0563,0,0,0,0,0,-0.0615,-0.0619,-0.0618,-0.0616,-0.0609,-0.0631,-0.0642,-0.0655,-0.0653,-0.0658,-0.0641,-0.0617,-0.0596,-0.0567,-0.0548,-0.0502,-0.0491,-0.0476,-0.0477,-0.0478,-0.0456,-0.0457,-0.0456,-0.0469,-0.0469,-0.0469,0,0,-0.0611,-0.0616,-0.0617,-0.0619,-0.0626,-0.0614,-0.0638,-0.0638,-0.0634,-0.0636,-0.062,-0.0618,-0.0589,-0.0561,-0.0539,-0.0529,-0.0469,-0.0477,-0.0478,-0.0455,-0.0457,-0.0455,-0.0454,-0.0468,-0.0468,-0.0468,0,0,-0.0597,-0.0601,-0.0594,-0.0598,-0.0603,-0.0609,-0.0601,-0.0607,-0.0613,-0.0599,-0.0609,-0.0597,-0.055,-0.0542,-0.0525,-0.0508,-0.0484,-0.0495,-0.0465,-0.0468,-0.0466,-0.0465,-0.0455,-0.0452,-0.0482,-0.0482,-0.0482,0,-0.0595,-0.0583,-0.0595,-0.0584,-0.058,-0.0595,-0.0573,-0.058,-0.0584,-0.0574,-0.0585,-0.0551,-0.0539,-0.0501,-0.0512,-0.0506,-0.0502,-0.0467,-0.0469,-0.0467,-0.0466,-0.0455,-0.0452,-0.0483,-0.0483,-0.0483,-0.0483,0,-0.0569,-0.0566,-0.0551,-0.0544,-0.0543,-0.0527,-0.0521,-0.0518,-0.0519,-0.0526,-0.05,-0.0506,-0.0479,-0.0483,-0.049,-0.0468,-0.0468,-0.0484,-0.0469,-0.0465,-0.0454,-0.0451,-0.0484,-0.0484,-0.0483,-0.0483,0,0,-0.0508,-0.0534,-0.0523,-0.0519,-0.0518,-0.0501,-0.0483,-0.0463,-0.0437,-0.0449,-0.0415,-0.0417,-0.0427,-0.041,-0.0422,-0.0427,-0.0434,-0.0448,-0.0448,-0.0438,-0.0431,-0.042,-0.0415,-0.0458,-0.0457,-0.0457,-0.043,0,-0.0474,-0.0465,-0.048,-0.0448,-0.0424,-0.0435,-0.0413,-0.0403,-0.0396,-0.037,-0.0375,-0.0356,-0.0394,-0.0387,-0.0397,-0.0422,-0.0426,-0.0439,-0.0432,-0.0431,-0.0423,-0.0411,-0.039,-0.0363,-0.0426,-0.0426,-0.0426,0,-0.0409,-0.0417,-0.0398,-0.0392,-0.0376,-0.036,-0.0315,-0.0307,-0.0284,-0.0279,-0.0267,-0.0277,-0.0274,-0.032,-0.0338,-0.0346,-0.0384,-0.0411,-0.0411,-0.0385,-0.0413,-0.0375,-0.0355,-0.0442,-0.0421,-0.0421,-0.0421,0,-0.0342,-0.0336,-0.0328,-0.0326,-0.0326,-0.0302,-0.0293,-0.0269,-0.0245,-0.0225,-0.0204,-0.0204,-0.0196,-0.0239,-0.0289,-0.0319,-0.031,-0.0358,-0.0378,-0.0377,-0.0346,-0.0343,-0.0406,-0.0376,-0.0376,-0.0376,-0.0376,0,-0.0288,-0.0271,-0.0292,-0.0283,-0.023,-0.0249,-0.0191,-0.0182,-0.016,-0.0112,-0.0154,-0.0112,-0.0182,-0.0185,-0.0249,-0.028,-0.0274,-0.0355,-0.0365,-0.0351,-0.035,-0.0413,-0.0455,-0.0375,-0.0375,-0.0375,-0.0376,0,-0.0228,-0.0257,-0.0222,-0.0213,-0.0201,-0.0157,-0.013,-0.0092,-0.0091,-0.003,-0.0024,-0.0035,-0.0042,-0.0098,-0.0152,-0.0218,-0.0292,-0.028,-0.0249,-0.0256,-0.0376,-0.0419,-0.0444,-0.0458,-0.0302,-0.0302,-0.0301,0,-0.0217,-0.0198,-0.0157,-0.0126,-0.0123,-0.0077,-0.0045,-0.0044,-0.0009,0.003,0.0069,0.007,0.0101,0.0035,-0.0075,-0.0156,-0.0247,-0.0217,-0.0279,-0.0362,-0.0417,-0.0454,-0.0467,-0.0247,-0.0246,-0.0246,-0.0245,0,-0.017,-0.0148,-0.0125,-0.0054,-0.0008,0.0041,0.008,0.0122,0.0135,0.0184,0.0252,0.0276,0.0202,0.0144,0.0013,-0.0072,-0.0259,-0.0207,-0.0302,-0.0376,-0.0407,-0.0432,-0.0283,-0.0239,-0.0239,-0.024,-0.024,-0.024,-0.0122,-0.0083,-0.0038,0.0033,0.0089,0.0164,0.0221,0.0263,0.0344,0.0439,0.0423,0.0498,0.0342,0.0168,0.0031,-0.0208,-0.0219,-0.0298,-0.034,-0.0368,-0.0391,-0.0218,-0.0185,-0.0186,-0.0186,-0.0186,-0.0186,0,-0.0059,-0.0027,0.004,0.0135,0.0217,0.0224,0.0309,0.0376,0.0494,0.0589,0.0661,0.0661,0.0464,0.0233,-0.0093,-0.0298,-0.0383,-0.0413,-0.0475,-0.0481,-0.0335,-0.0344,-0.0331,-0.0331,-0.0331,-0.0331,-0.0331,-0.0331,-0.0036,0.0039,0.0073,0.0232,0.0298,0.041,0.0468,0.0575,0.0664,0.0836,0.0919,0.0942,0.0797,0.0114,-0.0338,-0.0456,-0.0578,-0.0608,-0.0668,-0.0601,-0.0595,-0.0589,-0.061,-0.0652,-0.0653,-0.079,-0.0792,-0.0793]}],[{"header":{"parameterUnit":"m.s-1","parameterCategory":2,"la1":30.2991,"la2":30.254,"lo1":-89.0895,"lo2":-89.0444,"dy":0.0017,"dx":0.0017,"nx":28,"ny":28,"refTime":"2023-08-04T09:00:00:Z","depth":"2","parameterNumber":2,"parameterNumberName":"U-component_of_CURRENTS"},"data":[0,0,0,0,0,0,0,0,0,0,0,0,0,0,0,0,0,0,0,0,0,0,0,0,0,0,0,0,0,0,0,0,0,0,0,0,0,0,0,0,0,0,0,0,0,0,0,0,0,0,0,0,0,0,0,0,0,0,0.0719,0.0723,0,0.0745,0.0742,0.0739,0.0694,0.0696,0.0699,0.0701,0.0854,0.0856,0.0858,0,0,0,0,0,0,0,0,0,0,0,0,0,0.059,0.0589,0.0719,0.0723,0.0727,0.0745,0.0741,0.0738,0.0694,0.0696,0.0699,0.0702,0.0854,0.0856,0.0858,0,0,0,0,0,0,0,0,0,0,0,0,0,0.0594,0.0589,0.0718,0.0738,0.0743,0.0746,0.0741,0.0737,0.0693,0.0697,0.07,0.0703,0.0853,0.0856,0.0859,0.0806,0,0,0.0867,0.0869,0,0,0,0,0,0,0,0,0.0594,0.0593,0.0731,0.0737,0.0743,0.0757,0.0755,0.0781,0.0692,0.0668,0.0701,0.0705,0.0859,0.0861,0.0796,0.0813,0.082,0.0868,0.0869,0.0871,0.0871,0,0,0,0,0,0,0,0.0593,0.0592,0.0686,0.0736,0.0744,0.0736,0.0735,0.0755,0.0713,0.067,0.0677,0.0746,0.0857,0.0793,0.0801,0.0822,0.0868,0.087,0.0872,0.0873,0.107,0.1074,0,0,0,0,0,0,0.0673,0.0592,0.0686,0.0692,0.0723,0.0738,0.0736,0.0714,0.071,0.0724,0.0743,0.0745,0.0786,0.0798,0.0807,0.0954,0.0871,0.0873,0.0875,0.1067,0.1071,0.1075,0,0,0,0,0,0,0.0667,0.0676,0.0686,0.0681,0.0688,0.0741,0.0715,0.0714,0.0712,0.0772,0.078,0.0756,0.079,0.0803,0.0903,0.0954,0.0875,0.0877,0.1063,0.1068,0.1073,0.1118,0,0,0,0,0,0,0.0661,0.0671,0.0575,0.0684,0.0693,0.0635,0.0716,0.0714,0.0767,0.0768,0.0785,0.0798,0.0793,0.0899,0.0906,0.0956,0.0879,0.1058,0.1065,0.1071,0.1112,0.1124,0.1135,0,0,0,0,0,0.0655,0.0682,0.0567,0.0578,0.059,0.0635,0.0626,0.0655,0.0765,0.0679,0.0806,0.0801,0.0947,0.0903,0.0911,0.0963,0.1055,0.1063,0.1071,0.1107,0.1122,0.1134,0,0,0,0,0,0,0.0574,0.0684,0.0563,0.0596,0.0541,0.0643,0.0681,0.0686,0.0703,0.0751,0.0833,0.0849,0.096,0.0963,0.0916,0.1047,0.1005,0.1014,0.103,0.1044,0.1055,0.1021,0.0882,0,0,0,0,0,0.0496,0.0565,0.0543,0.0559,0.0572,0.0596,0.0613,0.0584,0.0687,0.0694,0.0769,0.0872,0.0979,0.1018,0.1061,0.1119,0.1125,0.1167,0.1178,0.1187,0.117,0.1245,0.126,0.1101,0.1101,0.1101,0,0,0.0476,0.0563,0.0574,0.0546,0.0572,0.0564,0.061,0.0652,0.0686,0.0719,0.0855,0.0906,0.101,0.1085,0.1134,0.1103,0.124,0.1197,0.1204,0.1181,0.1255,0.127,0.1283,0.1107,0.1106,0.1105,0,0,0.0589,0.0543,0.0603,0.0556,0.0564,0.0576,0.0603,0.0643,0.0689,0.0771,0.0859,0.0934,0.1097,0.1127,0.1201,0.1301,0.1305,0.1347,0.1361,0.1436,0.1448,0.1459,0.1488,0.1501,0.1342,0.1342,0.1342,0,0.0525,0.0566,0.0605,0.0625,0.0641,0.062,0.0606,0.0653,0.0707,0.077,0.0838,0.1073,0.1124,0.1258,0.1295,0.132,0.136,0.1298,0.1446,0.1457,0.1467,0.1495,0.1508,0.1345,0.1345,0.1345,0.1344,0,0.0605,0.0595,0.0702,0.0699,0.0667,0.0693,0.0726,0.0731,0.0861,0.0891,0.1052,0.1125,0.1257,0.1293,0.1347,0.1441,0.1447,0.1456,0.1397,0.1485,0.151,0.1523,0.135,0.1349,0.1348,0.1347,0,0,0.0648,0.0718,0.0747,0.0715,0.069,0.0716,0.08,0.0832,0.096,0.1001,0.1177,0.1315,0.1327,0.1405,0.1442,0.1479,0.1581,0.1502,0.1505,0.1504,0.1739,0.1695,0.1704,0.1638,0.164,0.1643,0.1726,0,0.0675,0.0754,0.0765,0.0798,0.082,0.0784,0.0888,0.0891,0.1011,0.1157,0.124,0.1419,0.1402,0.1482,0.1518,0.1569,0.1621,0.1555,0.1677,0.1678,0.1606,0.172,0.1533,0.1589,0.1739,0.1741,0.1742,0,0.0718,0.0784,0.0809,0.0868,0.0879,0.0889,0.1002,0.1062,0.1202,0.1295,0.1395,0.1495,0.157,0.1585,0.1677,0.1651,0.1708,0.1727,0.1732,0.1675,0.166,0.153,0.1607,0.1764,0.1763,0.1761,0.1759,0,0.0754,0.0842,0.0895,0.088,0.0908,0.0959,0.1014,0.1111,0.1202,0.1391,0.1457,0.1583,0.1665,0.1747,0.179,0.1774,0.1886,0.1874,0.1876,0.1872,0.1722,0.17,0.1975,0.1975,0.1975,0.1974,0.1974,0,0.0786,0.0833,0.0948,0.0925,0.1045,0.1046,0.1168,0.1239,0.1353,0.1455,0.1552,0.1646,0.1719,0.1794,0.1839,0.1886,0.1941,0.1889,0.1906,0.1735,0.1714,0.1866,0.1853,0.1977,0.1977,0.1976,0.1976,0,0.0789,0.0831,0.091,0.1,0.1038,0.1145,0.1224,0.1307,0.1411,0.1543,0.1608,0.17,0.1796,0.1845,0.1954,0.1929,0.1997,0.2013,0.1781,0.1768,0.1915,0.1903,0.2021,0.202,0.202,0.2019,0.2019,0,0.0804,0.0823,0.0969,0.1013,0.106,0.119,0.1239,0.1343,0.1418,0.1576,0.1639,0.1763,0.1828,0.1913,0.1913,0.1968,0.2038,0.1839,0.1768,0.1923,0.1928,0.1917,0.1906,0.1586,0.1582,0.1579,0.1577,0,0.0777,0.084,0.0902,0.1007,0.1091,0.1183,0.129,0.134,0.1469,0.1552,0.1684,0.1753,0.1822,0.1756,0.1788,0.181,0.1806,0.1778,0.2039,0.1603,0.1521,0.1522,0.1525,0.1549,0.1551,0.1553,0.1555,0.1556,0.0782,0.0881,0.0933,0.1042,0.1099,0.1163,0.1207,0.1289,0.1376,0.1475,0.1629,0.165,0.1572,0.1517,0.1535,0.158,0.1684,0.1612,0.1619,0.1629,0.1564,0.1486,0.1493,0.1495,0.1497,0.1499,0.15,0,0.0837,0.089,0.0932,0.1044,0.1048,0.1106,0.1201,0.1207,0.127,0.1358,0.1457,0.1293,0.1231,0.1259,0.1251,0.1264,0.1241,0.1266,0.1189,0.1216,0.124,0.1153,0.0974,0.0973,0.0972,0.0971,0,0,0.0842,0.0888,0.0921,0.0939,0.0998,0.1017,0.106,0.1067,0.1103,0.1081,0.1086,0.1128,0.1143,0.0972,0.097,0.099,0.1108,0.0981,0.1391,0.1321,0.1344,0.1417,0.1311,0,0,0,0,0]},{"header":{"parameterUnit":"m.s-1","parameterCategory":2,"la1":30.2991,"la2":30.254,"lo1":-89.0895,"lo2":-89.0444,"dy":0.0017,"dx":0.0017,"nx":28,"ny":28,"refTime":"2023-08-04T09:00:00:Z","depth":"2","parameterNumber":3,"parameterNumberName":"V-component_of_CURRENTS"},"data":[0,0,0,0,0,0,0,0,0,0,0,0,0,0,0,0,0,0,0,0,0,0,0,0,0,0,0,0,0,0,0,0,0,0,0,0,0,0,0,0,0,0,0,0,0,0,0,0,0,0,0,0,0,0,0,0,0,0,-0.0159,-0.0163,0,-0.0371,-0.0373,-0.0375,-0.0436,-0.0436,-0.0436,-0.0436,-0.0444,-0.0445,-0.0445,0,0,0,0,0,0,0,0,0,0,0,0,0,-0.0004,-0.0004,-0.0159,-0.0163,-0.0166,-0.0371,-0.0373,-0.0375,-0.0436,-0.0436,-0.0436,-0.0436,-0.0444,-0.0445,-0.0445,0,0,0,0,0,0,0,0,0,0,0,0,0,-0.0118,-0.0004,-0.0158,-0.023,-0.0239,-0.0371,-0.0373,-0.0375,-0.0436,-0.0436,-0.0436,-0.0436,-0.0444,-0.0445,-0.0445,-0.0451,0,0,-0.0446,-0.0447,0,0,0,0,0,0,0,0,-0.0111,-0.0122,-0.0216,-0.0226,-0.0236,-0.0387,-0.0323,-0.0394,-0.0436,-0.035,-0.0436,-0.0436,-0.0414,-0.0417,-0.0444,-0.0451,-0.0451,-0.0446,-0.0447,-0.0447,-0.0447,0,0,0,0,0,0,0,-0.0103,-0.0115,-0.0232,-0.022,-0.0233,-0.032,-0.0333,-0.0337,-0.0367,-0.0357,-0.0365,-0.0407,-0.0416,-0.0443,-0.0444,-0.0452,-0.0446,-0.0447,-0.0447,-0.0447,-0.0463,-0.0463,0,0,0,0,0,0,-0.0089,-0.0106,-0.0225,-0.0239,-0.0185,-0.0323,-0.0337,-0.033,-0.0372,-0.0383,-0.0407,-0.0409,-0.0443,-0.0443,-0.0444,-0.044,-0.0447,-0.0447,-0.0448,-0.0463,-0.0463,-0.0463,0,0,0,0,0,0,-0.0084,-0.0096,-0.0217,-0.019,-0.0213,-0.0325,-0.0317,-0.0334,-0.0365,-0.0414,-0.0419,-0.0421,-0.0443,-0.0444,-0.0472,-0.0441,-0.0448,-0.0448,-0.0463,-0.0463,-0.0463,-0.0439,0,0,0,0,0,0,-0.0077,-0.0091,-0.0079,-0.0187,-0.0214,-0.0274,-0.0319,-0.0339,-0.0396,-0.0401,-0.0428,-0.0429,-0.0442,-0.0472,-0.0473,-0.0442,-0.0448,-0.0463,-0.0463,-0.0463,-0.0439,-0.0438,-0.0437,0,0,0,0,0,-0.007,-0.0101,-0.0075,-0.0092,-0.0191,-0.0275,-0.0294,-0.037,-0.0397,-0.0397,-0.0446,-0.0428,-0.0472,-0.0474,-0.0474,-0.0442,-0.0463,-0.0463,-0.0463,-0.044,-0.0438,-0.0437,0,0,0,0,0,0,-0.0048,-0.0113,-0.0088,-0.0134,-0.0172,-0.0289,-0.0335,-0.0368,-0.041,-0.0402,-0.0448,-0.0453,-0.0465,-0.0464,-0.0464,-0.0449,-0.0456,-0.0457,-0.0438,-0.0437,-0.0436,-0.04,-0.0449,0,0,0,0,0,-0.0024,-0.0055,-0.0101,-0.0138,-0.015,-0.0223,-0.0271,-0.0291,-0.0358,-0.0377,-0.0417,-0.0442,-0.0467,-0.0463,-0.0483,-0.0475,-0.0477,-0.0451,-0.045,-0.0449,-0.0421,-0.0453,-0.0451,-0.0465,-0.0465,-0.0465,0,0,-0.002,-0.0077,-0.0083,-0.0134,-0.0175,-0.0178,-0.0249,-0.0296,-0.0305,-0.0365,-0.0406,-0.0446,-0.0472,-0.0479,-0.0478,-0.0469,-0.0443,-0.0449,-0.0448,-0.042,-0.0453,-0.0451,-0.045,-0.0465,-0.0465,-0.0465,0,0,-0.0055,-0.0067,-0.0078,-0.0089,-0.0134,-0.0171,-0.0173,-0.0245,-0.0275,-0.0303,-0.0364,-0.0394,-0.0426,-0.0449,-0.0461,-0.046,-0.0451,-0.0457,-0.04,-0.0432,-0.0431,-0.043,-0.0414,-0.0412,-0.0438,-0.0438,-0.0438,0,-0.0025,-0.0045,-0.0099,-0.0099,-0.0107,-0.0154,-0.0126,-0.0173,-0.025,-0.0265,-0.0295,-0.0373,-0.0405,-0.0418,-0.043,-0.0451,-0.046,-0.0405,-0.043,-0.0429,-0.0428,-0.0413,-0.041,-0.0437,-0.0437,-0.0437,-0.0437,0,-0.0033,-0.0031,-0.0056,-0.0041,-0.0053,-0.0053,-0.0081,-0.0098,-0.0138,-0.0178,-0.0212,-0.0285,-0.032,-0.034,-0.0387,-0.0394,-0.0399,-0.0441,-0.043,-0.0425,-0.0409,-0.0407,-0.0435,-0.0435,-0.0436,-0.0436,0,0,0.0002,-0.0034,-0.0033,-0.001,-0.0001,-0.0023,-0.0011,-0.0021,-0.003,-0.0082,-0.0095,-0.0169,-0.0213,-0.0231,-0.0296,-0.0323,-0.0343,-0.0375,-0.0377,-0.035,-0.0382,-0.0353,-0.0348,-0.0403,-0.0403,-0.0403,-0.0367,0,0.0041,0.0041,0.0027,0.0058,0.0071,0.0077,0.0072,0.0065,0.0034,0.0002,-0.0049,-0.01,-0.0173,-0.02,-0.0236,-0.0323,-0.034,-0.0346,-0.0396,-0.0396,-0.0366,-0.0346,-0.034,-0.0306,-0.0365,-0.0365,-0.0365,0,0.006,0.0048,0.0091,0.0099,0.0114,0.0126,0.0143,0.014,0.0114,0.0099,0.0077,0.0015,-0.0029,-0.0109,-0.0197,-0.0202,-0.0282,-0.0343,-0.0344,-0.0317,-0.0363,-0.0324,-0.03,-0.0362,-0.0362,-0.0362,-0.0362,0,0.0071,0.0087,0.0109,0.0128,0.0143,0.0158,0.016,0.0157,0.0162,0.0142,0.016,0.0101,0.0067,-0.0027,-0.0149,-0.0183,-0.0238,-0.0299,-0.0331,-0.0329,-0.0328,-0.0326,-0.0359,-0.0359,-0.036,-0.036,-0.036,0,0.0107,0.0123,0.0098,0.0121,0.0147,0.015,0.0181,0.0186,0.0198,0.022,0.0181,0.02,0.0074,0.0025,-0.0093,-0.0179,-0.019,-0.0295,-0.0318,-0.0318,-0.0315,-0.0375,-0.0377,-0.0358,-0.0359,-0.0359,-0.0359,0,0.0127,0.0124,0.0136,0.0143,0.0148,0.0157,0.0202,0.0222,0.0226,0.0267,0.0265,0.0268,0.0225,0.0121,-0.0011,-0.0098,-0.0196,-0.0236,-0.0196,-0.0214,-0.0272,-0.0273,-0.0239,-0.0237,-0.0236,-0.0235,-0.0234,0,0.0128,0.0135,0.0143,0.0167,0.0174,0.019,0.0217,0.0231,0.0257,0.0311,0.0334,0.0327,0.0352,0.0232,0.0065,-0.0068,-0.0142,-0.016,-0.0228,-0.0233,-0.0259,-0.0263,-0.0266,-0.0213,-0.0212,-0.0211,-0.0211,0,0.0155,0.0154,0.0171,0.0209,0.0232,0.0279,0.0299,0.033,0.0354,0.0408,0.0475,0.0509,0.0411,0.0304,0.0131,0.0024,-0.013,-0.0147,-0.0173,-0.0243,-0.0207,-0.0233,-0.0238,-0.0204,-0.0205,-0.0205,-0.0206,-0.0206,0.0158,0.0171,0.0201,0.0247,0.0292,0.0359,0.041,0.0449,0.0525,0.0604,0.0592,0.0642,0.0457,0.0274,0.0107,-0.006,-0.0065,-0.0154,-0.0158,-0.0163,-0.0165,-0.0129,-0.0109,-0.0109,-0.0109,-0.0109,-0.0109,0,0.0156,0.0195,0.025,0.0307,0.0386,0.0403,0.0473,0.054,0.0647,0.0697,0.0759,0.0615,0.0487,0.0296,0.0056,-0.0094,-0.0131,-0.0139,-0.0177,-0.0181,-0.0185,-0.0192,-0.0141,-0.0142,-0.0142,-0.0143,0,0,0.016,0.0221,0.0259,0.0388,0.0437,0.0539,0.0592,0.0704,0.0763,0.0858,0.0858,0.0786,0.0541,0.033,0.0121,0.0003,-0.0048,-0.0016,0.0028,0.0006,0.0004,-0.0173,-0.0184,0,0,0,0,0]}],[{"header":{"parameterUnit":"m.s-1","parameterCategory":2,"la1":30.2991,"la2":30.254,"lo1":-89.0895,"lo2":-89.0444,"dy":0.0017,"dx":0.0017,"nx":28,"ny":28,"refTime":"2023-08-04T09:00:00:Z","depth":"4","parameterNumber":2,"parameterNumberName":"U-component_of_CURRENTS"},"data":[0,0,0,0,0,0,0,0,0,0,0,0,0,0,0,0,0,0,0,0,0,0,0,0,0,0,0,0,0,0,0,0,0,0,0,0,0,0,0,0,0,0,0,0,0,0,0,0,0,0,0,0,0,0,0,0,0,0,-0.0453,-0.0452,0,-0.0448,-0.0448,-0.0448,-0.0432,-0.0432,-0.0432,-0.0431,-0.0549,-0.0553,-0.0556,0,0,0,0,0,0,0,0,0,0,0,0,0,-0.0412,-0.0413,-0.0453,-0.0452,-0.0452,-0.0448,-0.0448,-0.0448,-0.0433,-0.0432,-0.0431,-0.0431,-0.0548,-0.0552,-0.0557,0,0,0,0,0,0,0,0,0,0,0,0,0,-0.0422,-0.0414,-0.0453,-0.0443,-0.0442,-0.0448,-0.0448,-0.0448,-0.0433,-0.0432,-0.0431,-0.0431,-0.0547,-0.0552,-0.0557,-0.0605,0,0,-0.0574,-0.0576,0,0,0,0,0,0,0,0,-0.0422,-0.0424,-0.0445,-0.0444,-0.0443,-0.0439,-0.0477,-0.0506,-0.0433,-0.0438,-0.0431,-0.043,-0.0524,-0.0531,-0.0532,-0.061,-0.0615,-0.0574,-0.0578,-0.058,-0.0581,0,0,0,0,0,0,0,-0.0421,-0.0424,-0.0452,-0.0444,-0.0443,-0.0427,-0.0428,-0.0482,-0.0488,-0.0437,-0.0436,-0.0433,-0.0524,-0.0526,-0.0535,-0.0617,-0.0574,-0.0579,-0.0582,-0.0584,-0.0785,-0.0787,0,0,0,0,0,0,-0.0422,-0.0424,-0.0452,-0.0452,-0.0429,-0.0428,-0.0429,-0.0442,-0.0485,-0.0489,-0.0434,-0.0433,-0.0517,-0.0528,-0.0539,-0.063,-0.058,-0.0585,-0.0588,-0.0783,-0.0785,-0.0787,0,0,0,0,0,0,-0.0422,-0.0425,-0.0452,-0.0435,-0.0437,-0.043,-0.0444,-0.0442,-0.0433,-0.0481,-0.0487,-0.0425,-0.0517,-0.0531,-0.0595,-0.0633,-0.0587,-0.0592,-0.078,-0.0783,-0.0786,-0.0792,0,0,0,0,0,0,-0.0421,-0.0426,-0.0445,-0.0436,-0.0438,-0.0448,-0.0444,-0.0443,-0.0433,-0.0431,-0.0476,-0.0486,-0.0518,-0.0587,-0.06,-0.064,-0.0596,-0.0777,-0.0782,-0.0785,-0.079,-0.0795,-0.08,0,0,0,0,0,-0.042,-0.0439,-0.0446,-0.045,-0.0463,-0.0448,-0.0448,-0.044,-0.0433,-0.0429,-0.0473,-0.0484,-0.0621,-0.0593,-0.0608,-0.065,-0.0776,-0.078,-0.0785,-0.0787,-0.0794,-0.08,0,0,0,0,0,0,-0.042,-0.0439,-0.0447,-0.047,-0.0458,-0.0445,-0.045,-0.0435,-0.0462,-0.0464,-0.0508,-0.0523,-0.0593,-0.0624,-0.059,-0.0722,-0.0703,-0.0711,-0.0699,-0.0706,-0.0711,-0.0705,-0.0601,0,0,0,0,0,-0.0434,-0.0468,-0.0457,-0.0479,-0.0473,-0.0461,-0.0457,-0.0439,-0.0455,-0.0462,-0.0504,-0.0561,-0.0627,-0.0664,-0.0717,-0.0789,-0.0781,-0.0829,-0.0835,-0.0839,-0.0847,-0.0893,-0.0902,-0.0803,-0.0803,-0.0803,0,0,-0.0437,-0.0458,-0.0473,-0.0484,-0.048,-0.047,-0.0457,-0.0439,-0.0446,-0.0478,-0.0526,-0.0576,-0.0648,-0.0727,-0.0762,-0.0757,-0.085,-0.0845,-0.0848,-0.0853,-0.0899,-0.0908,-0.0916,-0.0806,-0.0805,-0.0805,0,0,-0.0453,-0.048,-0.0502,-0.0491,-0.0481,-0.0474,-0.0465,-0.0451,-0.0465,-0.051,-0.0545,-0.0611,-0.0707,-0.0766,-0.0811,-0.0881,-0.0871,-0.0907,-0.0939,-0.0984,-0.0991,-0.0998,-0.0932,-0.0934,-0.0917,-0.0917,-0.0917,0,-0.0458,-0.0482,-0.0499,-0.05,-0.0493,-0.0474,-0.0462,-0.0476,-0.049,-0.0525,-0.0528,-0.0686,-0.0729,-0.0845,-0.087,-0.0892,-0.0883,-0.0903,-0.0988,-0.0995,-0.1002,-0.0934,-0.0935,-0.0918,-0.0918,-0.0918,-0.0918,0,-0.0467,-0.0483,-0.0488,-0.0501,-0.0497,-0.0477,-0.0483,-0.0501,-0.0524,-0.055,-0.0658,-0.0733,-0.0841,-0.0861,-0.0891,-0.0983,-0.0942,-0.0977,-0.0961,-0.1012,-0.0936,-0.0937,-0.092,-0.0919,-0.0919,-0.0919,0,0,-0.0485,-0.0496,-0.0499,-0.0498,-0.0487,-0.048,-0.0511,-0.0542,-0.0586,-0.0637,-0.0719,-0.0834,-0.0891,-0.0946,-0.1,-0.103,-0.1041,-0.1031,-0.1033,-0.0945,-0.1065,-0.0878,-0.086,-0.1102,-0.1104,-0.1106,-0.0965,0,-0.0484,-0.0493,-0.05,-0.0496,-0.0487,-0.049,-0.0537,-0.0567,-0.062,-0.07,-0.079,-0.0897,-0.0925,-0.0997,-0.104,-0.106,-0.1058,-0.1071,-0.1048,-0.1045,-0.0859,-0.0862,-0.1113,-0.0966,-0.0966,-0.0966,-0.0966,0,-0.0483,-0.0492,-0.0495,-0.0509,-0.051,-0.0522,-0.0586,-0.0626,-0.0729,-0.0792,-0.0907,-0.0967,-0.1064,-0.1072,-0.1121,-0.1135,-0.1105,-0.1083,-0.1079,-0.0911,-0.0863,-0.0926,-0.0968,-0.0968,-0.0968,-0.0968,-0.0968,0,-0.048,-0.0485,-0.0499,-0.0492,-0.0512,-0.0543,-0.058,-0.0665,-0.0719,-0.0869,-0.0908,-0.1047,-0.1099,-0.114,-0.1103,-0.1135,-0.1082,-0.1127,-0.0905,-0.0887,-0.1094,-0.1089,-0.1132,-0.1132,-0.1132,-0.1133,-0.1133,0,-0.0466,-0.0473,-0.0508,-0.0501,-0.0541,-0.0571,-0.0646,-0.071,-0.0815,-0.0835,-0.0983,-0.0985,-0.1122,-0.1096,-0.1097,-0.0972,-0.1088,-0.0888,-0.0856,-0.1089,-0.1086,-0.1089,-0.1086,-0.1127,-0.1129,-0.113,-0.1131,0,-0.0456,-0.0473,-0.0481,-0.0518,-0.0535,-0.0579,-0.0655,-0.07,-0.0818,-0.084,-0.0883,-0.0949,-0.0896,-0.094,-0.0936,-0.0905,-0.0847,-0.0764,-0.092,-0.0902,-0.0613,-0.0612,-0.0522,-0.0514,-0.0508,-0.0503,-0.0498,0,-0.0446,-0.045,-0.049,-0.0501,-0.052,-0.0586,-0.0614,-0.0716,-0.0722,-0.0745,-0.071,-0.0695,-0.0703,-0.0557,-0.0632,-0.0597,-0.059,-0.0557,-0.0673,-0.058,-0.0559,-0.0568,-0.0576,-0.0488,-0.0487,-0.0485,-0.0484,0,-0.0413,-0.0446,-0.0468,-0.0493,-0.0512,-0.051,-0.0532,-0.0546,-0.0588,-0.0657,-0.0519,-0.0484,-0.038,-0.0394,-0.0362,-0.0349,-0.061,-0.0493,-0.0508,-0.0616,-0.0539,-0.0526,-0.0541,-0.0462,-0.0465,-0.0467,-0.0468,0,-0.0411,-0.0416,-0.0451,-0.0477,-0.0481,-0.0421,-0.0454,-0.0394,-0.0411,-0.0411,-0.0314,-0.0294,-0.0299,-0.0248,-0.0212,-0.0198,-0.0208,-0.0239,-0.0268,-0.0292,-0.0291,-0.0165,0.0074,0,0,0,0,0,-0.0379,-0.0385,-0.0412,-0.0414,-0.0416,-0.0393,-0.0371,-0.0393,-0.0391,-0.0252,-0.0295,-0.0177,-0.0102,-0.0105,-0.0046,-0.0126,-0.0242,-0.0056,-0.0302,-0.0341,-0.0366,-0.0391,0,0,0,0,0,0,-0.0357,-0.0388,-0.0401,-0.0358,-0.034,-0.0292,-0.0269,-0.0261,-0.0191,-0.0194,-0.0163,-0.013,-0.0091,-0.0125,-0.0033,-0.0032,-0.0168,-0.0041,-0.0038,-0.0327,-0.035,-0.037,-0.0405,0,0,0,0,0]},{"header":{"parameterUnit":"m.s-1","parameterCategory":2,"la1":30.2991,"la2":30.254,"lo1":-89.0895,"lo2":-89.0444,"dy":0.0017,"dx":0.0017,"nx":28,"ny":28,"refTime":"2023-08-04T09:00:00:Z","depth":"4","parameterNumber":3,"parameterNumberName":"V-component_of_CURRENTS"},"data":[0,0,0,0,0,0,0,0,0,0,0,0,0,0,0,0,0,0,0,0,0,0,0,0,0,0,0,0,0,0,0,0,0,0,0,0,0,0,0,0,0,0,0,0,0,0,0,0,0,0,0,0,0,0,0,0,0,0,0.031,0.031,0,0.0257,0.0256,0.0255,0.0236,0.0237,0.0237,0.0238,0.0223,0.0222,0.0221,0,0,0,0,0,0,0,0,0,0,0,0,0,0.034,0.034,0.031,0.031,0.031,0.0257,0.0256,0.0254,0.0236,0.0237,0.0238,0.0238,0.0223,0.0222,0.0221,0,0,0,0,0,0,0,0,0,0,0,0,0,0.0306,0.034,0.031,0.0299,0.0297,0.0257,0.0256,0.0254,0.0236,0.0237,0.0238,0.0239,0.0224,0.0222,0.022,0.0188,0,0,0.0215,0.0215,0,0,0,0,0,0,0,0,0.0308,0.0304,0.03,0.0299,0.0298,0.0259,0.0261,0.0236,0.0235,0.0253,0.0238,0.0239,0.0242,0.0238,0.0217,0.0187,0.0187,0.0215,0.0214,0.0213,0.0213,0,0,0,0,0,0,0,0.031,0.0306,0.0283,0.03,0.0299,0.0278,0.0274,0.0255,0.0238,0.0251,0.0251,0.0254,0.0241,0.0219,0.0217,0.0186,0.0215,0.0214,0.0213,0.0212,0.0096,0.0094,0,0,0,0,0,0,0.033,0.0308,0.0285,0.0282,0.0312,0.0277,0.0272,0.0266,0.0237,0.0235,0.0254,0.0254,0.0221,0.0219,0.0216,0.018,0.0213,0.0212,0.0211,0.0098,0.0096,0.0094,0,0,0,0,0,0,0.0331,0.0328,0.0287,0.0299,0.0293,0.0276,0.0268,0.0264,0.0242,0.0239,0.0237,0.0238,0.0222,0.0219,0.0192,0.0179,0.0211,0.021,0.0101,0.0098,0.0095,0.0105,0,0,0,0,0,0,0.0332,0.0328,0.0326,0.03,0.0294,0.0252,0.0268,0.0263,0.0246,0.0245,0.0225,0.0224,0.0222,0.0194,0.019,0.0178,0.0208,0.0104,0.01,0.0096,0.0107,0.0103,0.0099,0,0,0,0,0,0.0333,0.0326,0.0325,0.0323,0.0292,0.0252,0.0244,0.0233,0.0244,0.0219,0.0212,0.0225,0.0166,0.0191,0.0187,0.0174,0.0105,0.0101,0.0096,0.0109,0.0104,0.0099,0,0,0,0,0,0,0.0329,0.0323,0.0322,0.0312,0.0281,0.0251,0.0237,0.0228,0.02,0.0204,0.0205,0.0202,0.0162,0.016,0.0188,0.0123,0.0135,0.0129,0.0146,0.0141,0.0136,0.0157,0.0207,0,0,0,0,0,0.033,0.0328,0.0306,0.0294,0.0283,0.0258,0.0243,0.0227,0.0206,0.0194,0.0189,0.017,0.0135,0.0136,0.0099,0.008,0.008,0.0062,0.0058,0.0054,0.0063,0.0054,0.0051,0.0078,0.0078,0.0078,0,0,0.0321,0.0324,0.0318,0.0294,0.0274,0.024,0.0249,0.0217,0.019,0.0197,0.0168,0.0146,0.0118,0.0083,0.0068,0.009,0.004,0.0048,0.0046,0.0057,0.0049,0.0047,0.0045,0.0075,0.0076,0.0076,0,0,0.0297,0.0306,0.0288,0.0267,0.0243,0.0225,0.0216,0.0184,0.0171,0.0136,0.0126,0.0108,0.0068,0.0053,0.0038,-0.0012,0.0001,-0.0033,-0.0011,-0.0021,-0.0022,-0.0022,-0.0038,-0.004,-0.0013,-0.0013,-0.0013,0,0.0283,0.0267,0.0271,0.0245,0.023,0.0219,0.0179,0.0158,0.0121,0.0107,0.0126,0.006,0.0054,0.001,0.0003,-0.0017,-0.0022,0.002,-0.0021,-0.0022,-0.0023,-0.0038,-0.004,-0.0013,-0.0013,-0.0013,-0.0013,0,0.024,0.0227,0.0215,0.0187,0.0162,0.0131,0.0107,0.0082,0.0082,0.0064,0.0023,0.002,-0.0004,-0.0019,-0.0011,-0.0034,-0.0038,-0.0038,0.0006,-0.0024,-0.004,-0.0042,-0.0013,-0.0013,-0.0013,-0.0013,0,0,0.0212,0.0188,0.0186,0.0161,0.0134,0.01,0.0065,0.002,-0.0005,-0.0014,-0.0039,-0.0063,-0.0039,-0.0054,-0.0048,-0.0036,-0.0036,-0.002,-0.0021,-0.0011,-0.0059,-0.0064,-0.0067,-0.0034,-0.0034,-0.0035,-0.0071,0,0.0174,0.0129,0.0126,0.0066,0.0035,0.0022,-0.0013,-0.0051,-0.0063,-0.0087,-0.0077,-0.0094,-0.0061,-0.0049,-0.0038,-0.004,-0.0041,-0.0026,-0.0053,-0.0054,-0.0033,-0.0069,-0.0035,-0.0073,-0.0073,-0.0073,-0.0074,0,0.0134,0.0113,0.0059,0.001,-0.0006,-0.0043,-0.0093,-0.0123,-0.0153,-0.015,-0.0144,-0.0134,-0.0107,-0.0075,-0.0066,-0.0054,-0.0053,-0.0053,-0.0055,-0.0059,-0.0063,-0.0038,-0.0078,-0.0078,-0.0078,-0.0077,-0.0077,0,0.0116,0.0065,0.0027,0.0011,-0.0048,-0.0079,-0.0105,-0.0145,-0.0163,-0.0165,-0.0162,-0.0153,-0.0122,-0.0114,-0.0078,-0.0068,-0.0084,-0.0078,-0.0098,-0.0099,-0.0083,-0.0081,-0.0097,-0.0097,-0.0097,-0.0097,-0.0097,0,0.0083,0.0048,0.0016,-0.0011,-0.0072,-0.0095,-0.015,-0.0172,-0.0184,-0.02,-0.0171,-0.0171,-0.0124,-0.0122,-0.0103,-0.0099,-0.0101,-0.01,-0.0108,-0.0084,-0.0082,-0.0085,-0.0083,-0.0098,-0.0098,-0.0098,-0.0097,0,0.0057,0.0044,-0.0009,-0.0063,-0.0085,-0.0123,-0.0167,-0.0194,-0.0189,-0.0201,-0.0183,-0.0173,-0.0152,-0.0138,-0.0131,-0.0124,-0.0128,-0.0139,-0.0121,-0.0126,-0.0134,-0.0131,-0.0161,-0.0161,-0.0162,-0.0162,-0.0162,0,0.0032,0.0012,-0.0042,-0.0066,-0.0093,-0.0141,-0.0173,-0.0192,-0.0198,-0.0205,-0.0203,-0.0193,-0.0181,-0.0172,-0.0166,-0.0158,-0.0158,-0.0166,-0.0138,-0.0136,-0.014,-0.0137,-0.0134,-0.0163,-0.0163,-0.0163,-0.0163,0,-0.002,-0.0019,-0.0059,-0.0078,-0.0117,-0.017,-0.02,-0.0195,-0.0198,-0.0211,-0.0192,-0.0186,-0.019,-0.0173,-0.0169,-0.0168,-0.0154,-0.0169,-0.0168,-0.0142,-0.0138,-0.0142,-0.0139,-0.0164,-0.0164,-0.0164,-0.0164,0,-0.0054,-0.0074,-0.0082,-0.0091,-0.0129,-0.0149,-0.0189,-0.0186,-0.0193,-0.0174,-0.0185,-0.018,-0.0185,-0.0184,-0.0187,-0.0173,-0.0168,-0.0157,-0.0156,-0.0155,-0.0137,-0.013,-0.0163,0,0,0,0,0,-0.0074,-0.0065,-0.0087,-0.01,-0.0117,-0.0107,-0.0175,-0.0198,-0.0201,-0.0176,-0.0165,-0.0162,-0.0158,-0.0177,-0.0159,-0.0206,-0.0178,-0.0189,-0.0166,-0.0172,-0.017,-0.0149,0,0,0,0,0,0,-0.0096,-0.0108,-0.0082,-0.0064,-0.0032,-0.0062,-0.0076,-0.0102,-0.0088,-0.0095,-0.0093,-0.0122,-0.0123,-0.0119,-0.0127,-0.0136,-0.0119,-0.0199,-0.0199,-0.0173,-0.0171,-0.017,-0.0148,0,0,0,0,0]}]]